Hourly Weather Kozyari

Today, 20 October, Tuesday

Time Temperature Precipitation Wind Pressure Humidity
00:00 +4°C° 0 mm 3 mps 740 mmHg 89%
01:00 +3°C° 0 mm 3 mps 740 mmHg 89%
02:00 +3°C° 0 mm 3 mps 740 mmHg 89%
03:00 +3°C° 0 mm 3 mps 740 mmHg 88%
04:00 +3°C° 0 mm 3 mps 740 mmHg 87%
05:00 +3°C° 0 mm 3 mps 740 mmHg 87%
06:00 +3°C° 0 mm 3 mps 741 mmHg 86%
07:00 +4°C° 0 mm 3 mps 741 mmHg 85%
08:00 +5°C° 0 mm 2 mps 741 mmHg 83%
09:00 +7°C° 0 mm 3 mps 741 mmHg 78%
10:00 +8°C° 0 mm 3 mps 742 mmHg 72%
11:00 +10°C° 0 mm 3 mps 742 mmHg 66%
12:00 +10°C° 0 mm 3 mps 742 mmHg 63%
13:00 +11°C° 0 mm 3 mps 742 mmHg 61%
14:00 +11°C° 0 mm 3 mps 742 mmHg 59%
15:00 +10°C° 0 mm 2 mps 741 mmHg 63%
16:00 +10°C° 0 mm 1 mps 741 mmHg 66%
17:00 +9°C° 0 mm 1 mps 741 mmHg 70%
18:00 +9°C° 0 mm 1 mps 741 mmHg 71%
19:00 +7°C° 0 mm 2 mps 741 mmHg 72%
20:00 +7°C° 0 mm 2 mps 741 mmHg 73%
21:00 +6°C° 0 mm 2 mps 741 mmHg 74%
22:00 +5°C° 0 mm 3 mps 740 mmHg 74%
23:00 +4°C° 0 mm 3 mps 740 mmHg 74%

Tomorrow, 21 October, Wednesday

Time Temperature Precipitation Wind Pressure Humidity
00:00 +5°C° 0 mm 3 mps 740 mmHg 75%
01:00 +5°C° 0 mm 4 mps 740 mmHg 75%
02:00 +5°C° 0 mm 4 mps 739 mmHg 75%
03:00 +4°C° 0 mm 4 mps 739 mmHg 77%
04:00 +4°C° 0 mm 3 mps 739 mmHg 78%
05:00 +4°C° 0 mm 3 mps 738 mmHg 79%
06:00 +4°C° 0 mm 3 mps 738 mmHg 79%
07:00 +4°C° 0 mm 3 mps 738 mmHg 79%
08:00 +4°C° 0 mm 3 mps 737 mmHg 79%
09:00 +7°C° 0 mm 3 mps 737 mmHg 74%
10:00 +8°C° 0 mm 2 mps 737 mmHg 68%
11:00 +10°C° 0 mm 2 mps 737 mmHg 63%
12:00 +12°C° 0 mm 2 mps 737 mmHg 59%
13:00 +11°C° 0 mm 3 mps 737 mmHg 56%
14:00 +12°C° 0 mm 3 mps 737 mmHg 52%
15:00 +13°C° 0 mm 2 mps 736 mmHg 56%
16:00 +12°C° 0 mm 2 mps 736 mmHg 61%
17:00 +10°C° 0 mm 2 mps 736 mmHg 65%
18:00 +9°C° 0 mm 2 mps 736 mmHg 65%
19:00 +9°C° 0 mm 2 mps 736 mmHg 66%
20:00 +8°C° 0 mm 2 mps 736 mmHg 66%
21:00 +8°C° 0 mm 2 mps 736 mmHg 65%
22:00 +8°C° 0 mm 2 mps 736 mmHg 65%
23:00 +7°C° 0 mm 2 mps 736 mmHg 65%

Day after tomorrow, 22 October, Thursday

Time Temperature Precipitation Wind Pressure Humidity
00:00 +7°C° 0 mm 2 mps 736 mmHg 64%
01:00 +7°C° 0 mm 2 mps 736 mmHg 63%
02:00 +7°C° 0 mm 2 mps 737 mmHg 62%
03:00 +7°C° 0 mm 2 mps 736 mmHg 63%
04:00 +7°C° 0 mm 2 mps 736 mmHg 64%
05:00 +7°C° 0 mm 2 mps 736 mmHg 64%
06:00 +7°C° 0 mm 2 mps 736 mmHg 64%
07:00 +8°C° 0 mm 3 mps 736 mmHg 63%
08:00 +8°C° 0 mm 3 mps 736 mmHg 63%
09:00 +10°C° 0 mm 3 mps 736 mmHg 59%
10:00 +12°C° 0 mm 3 mps 737 mmHg 55%
11:00 +14°C° 0 mm 3 mps 737 mmHg 51%
12:00 +14°C° 0 mm 3 mps 737 mmHg 51%
13:00 +16°C° 0 mm 3 mps 737 mmHg 50%
14:00 +17°C° 0 mm 3 mps 736 mmHg 49%
15:00 +16°C° 0 mm 3 mps 736 mmHg 54%
16:00 +15°C° 0 mm 2 mps 736 mmHg 59%
17:00 +13°C° 0 mm 2 mps 735 mmHg 64%
18:00 +13°C° 0 mm 2 mps 736 mmHg 64%
19:00 +12°C° 0 mm 2 mps 736 mmHg 64%
20:00 +12°C° 0 mm 2 mps 736 mmHg 65%
21:00 +10°C° 0 mm 2 mps 735 mmHg 64%
22:00 +10°C° 0 mm 2 mps 735 mmHg 64%
23:00 +10°C° 0 mm 2 mps 735 mmHg 63%

23 October, Friday

Time Temperature Precipitation Wind Pressure Humidity
00:00 +9°C° 0 mm 2 mps 735 mmHg 63%
01:00 +9°C° 0 mm 2 mps 735 mmHg 62%
02:00 +9°C° 0 mm 2 mps 734 mmHg 62%
03:00 +10°C° 0 mm 1 mps 734 mmHg 63%
04:00 +9°C° 0 mm 1 mps 734 mmHg 63%
05:00 +9°C° 0 mm 1 mps 734 mmHg 64%
06:00 +9°C° 0 mm 1 mps 733 mmHg 65%
07:00 +10°C° 0 mm 1 mps 733 mmHg 66%
08:00 +10°C° 0 mm 1 mps 733 mmHg 68%
09:00 +12°C° 0 mm 2 mps 733 mmHg 65%
10:00 +13°C° 0 mm 2 mps 733 mmHg 62%
11:00 +15°C° 0 mm 2 mps 733 mmHg 59%
12:00 +14°C° 0 mm 3 mps 732 mmHg 60%
13:00 +16°C° 0 mm 3 mps 732 mmHg 60%
14:00 +16°C° 0 mm 3 mps 732 mmHg 61%
15:00 +16°C° 0 mm 3 mps 732 mmHg 65%
16:00 +15°C° 0 mm 2 mps 732 mmHg 68%
17:00 +14°C° 0 mm 2 mps 731 mmHg 72%
18:00 +13°C° 0 mm 3 mps 732 mmHg 72%
19:00 +12°C° 0 mm 4 mps 732 mmHg 72%
20:00 +11°C° 0 mm 4 mps 732 mmHg 73%
21:00 +11°C° 0 mm 4 mps 732 mmHg 76%
22:00 +11°C° 0 mm 4 mps 733 mmHg 80%
23:00 +10°C° 0 mm 4 mps 733 mmHg 83%

24 October, Saturday

Time Temperature Precipitation Wind Pressure Humidity
00:00 +10°C° 0 mm 4 mps 733 mmHg 83%
01:00 +11°C° 0 mm 4 mps 733 mmHg 84%
02:00 +11°C° 0 mm 4 mps 733 mmHg 85%
03:00 +11°C° 0 mm 4 mps 733 mmHg 86%
04:00 +10°C° 0 mm 3 mps 733 mmHg 88%
05:00 +10°C° 0 mm 3 mps 733 mmHg 89%
06:00 +10°C° 0 mm 3 mps 733 mmHg 88%
07:00 +10°C° 0 mm 3 mps 733 mmHg 87%
08:00 +10°C° 0 mm 3 mps 734 mmHg 86%
09:00 +11°C° 0 mm 3 mps 734 mmHg 81%
10:00 +13°C° 0 mm 4 mps 734 mmHg 76%
11:00 +14°C° 0 mm 5 mps 734 mmHg 71%
12:00 +14°C° 0 mm 5 mps 733 mmHg 68%
13:00 +14°C° 0 mm 5 mps 733 mmHg 65%
14:00 +14°C° 0 mm 6 mps 733 mmHg 63%
15:00 +13°C° 0 mm 5 mps 733 mmHg 66%
16:00 +12°C° 0 mm 5 mps 733 mmHg 69%
17:00 +11°C° 0 mm 4 mps 733 mmHg 73%
18:00 +10°C° 0 mm 5 mps 733 mmHg 73%
19:00 +9°C° 0 mm 5 mps 733 mmHg 73%
20:00 +9°C° 0 mm 6 mps 734 mmHg 73%
21:00 +8°C° 0 mm 6 mps 734 mmHg 74%
22:00 +7°C° 0 mm 6 mps 734 mmHg 76%
23:00 +7°C° 0 mm 5 mps 735 mmHg 77%

25 October, Sunday

Time Temperature Precipitation Wind Pressure Humidity
00:00 +6°C° 0 mm 5 mps 735 mmHg 78%
01:00 +6°C° 0 mm 5 mps 735 mmHg 78%
02:00 +5°C° 0 mm 6 mps 735 mmHg 79%
03:00 +5°C° 0 mm 5 mps 735 mmHg 80%
04:00 +5°C° 0 mm 5 mps 735 mmHg 82%
05:00 +5°C° 0 mm 5 mps 736 mmHg 83%
06:00 +5°C° 0 mm 5 mps 736 mmHg 83%
07:00 +5°C° 0 mm 5 mps 736 mmHg 84%
08:00 +5°C° 0 mm 5 mps 737 mmHg 84%
09:00 +6°C° 0 mm 5 mps 737 mmHg 79%
10:00 +7°C° 0 mm 6 mps 737 mmHg 74%
11:00 +8°C° 0 mm 6 mps 737 mmHg 68%
12:00 +9°C° 0 mm 6 mps 737 mmHg 66%
13:00 +9°C° 0 mm 5 mps 737 mmHg 63%
14:00 +9°C° 0 mm 5 mps 737 mmHg 60%
15:00 +10°C° 0 mm 4 mps 737 mmHg 64%
16:00 +9°C° 0 mm 3 mps 737 mmHg 69%
17:00 +8°C° 0 mm 2 mps 737 mmHg 73%
18:00 +7°C° 0 mm 2 mps 737 mmHg 76%
19:00 +6°C° 0 mm 2 mps 738 mmHg 80%
20:00 +6°C° 0 mm 2 mps 738 mmHg 83%
21:00 +7°C° 0 mm 1 mps 738 mmHg 85%
22:00 +6°C° 0 mm 1 mps 738 mmHg 86%
23:00 +6°C° 0 mm 1 mps 738 mmHg 88%

26 October, Monday

Time Temperature Precipitation Wind Pressure Humidity
00:00 +6°C° 0 mm 1 mps 738 mmHg 88%
01:00 +6°C° 0 mm 1 mps 738 mmHg 89%
02:00 +4°C° 0 mm 0 mps 738 mmHg 89%
03:00 +5°C° 0 mm 1 mps 738 mmHg 89%
04:00 +5°C° 0 mm 1 mps 738 mmHg 90%
05:00 +5°C° 0 mm 1 mps 738 mmHg 90%
06:00 +5°C° 0 mm 1 mps 738 mmHg 89%
07:00 +5°C° 0 mm 1 mps 738 mmHg 89%
08:00 +6°C° 0 mm 1 mps 738 mmHg 88%
09:00 +6°C° 0 mm 2 mps 738 mmHg 80%
10:00 +8°C° 0 mm 2 mps 738 mmHg 73%
11:00 +10°C° 0 mm 3 mps 738 mmHg 65%
12:00 +10°C° 0 mm 3 mps 738 mmHg 62%
13:00 +11°C° 0 mm 3 mps 737 mmHg 60%
14:00 +11°C° 0 mm 3 mps 737 mmHg 57%
15:00 +10°C° 0 mm 3 mps 737 mmHg 61%
16:00 +9°C° 0 mm 3 mps 737 mmHg 65%
17:00 +8°C° 0 mm 2 mps 736 mmHg 69%
18:00 +8°C° 0 mm 3 mps 737 mmHg 72%
19:00 +7°C° 0 mm 3 mps 737 mmHg 74%
20:00 +5°C° 0 mm 3 mps 737 mmHg 76%
21:00 +5°C° 0 mm 3 mps 737 mmHg 77%
22:00 +5°C° 0 mm 3 mps 737 mmHg 77%
23:00 +4°C° 0 mm 3 mps 737 mmHg 78%
Show more